www.pogodaiklimat.ru

Погода и климат >> Архив погоды >> Россия >> Якутия >> Крестях


ПОГОДА в Крестяхе

  • Прогноз погоды в Крестяхе
  • Монитор погоды в Крестяхе

АРХИВ ПОГОДЫ в Крестяхе

Время (UTC), дата Ветер
(напр.,м/с)
 
Видим.   Явления Облачность Т
(С)
Тd
(С)
f
(%)
Тe
(С)
Тes
(С)
Комфортность P
(гПа)
Po
(гПа)
Тmin
(С)
Tmax
(С)
R
(мм)
R24
(мм)
S
(см)
06 15.09 Ю 3 20 км в посл. час ливневой дождь 10/10 600 м
[Cb cap]
+2.8 -0.5 79 -1 -1 1001.5 984.4
09 15.09 ЮВ 1 20 км 10/10 600 м
[Cb cap]
+4.2 -0.6 71 +3 +3 1002.0 985.0
12 15.09 штиль 0 20 км 10/9 600 м
[Sc Ci fib]
-0.8 -1.4 96 -2 -2 1003.6 986.2 +4.4 0.1
15 15.09 штиль 0 20 км 4/4 600 м
[Sc]
-2.4 -2.7 98 -4 -4 1004.0 986.6
18 15.09 Ю 1 20 км 8/8 600 м
[Sc]
+1.0 -0.4 90 -1 -1 1004.2 986.9
21 15.09 Ю 2 20 км 10/10 600 м
[Sc]
+0.4 -0.2 96 -3 -3 1004.2 987.0
00 16.09 штиль 0 20 км 10/10 600 м
[Sc]
+2.3 +0.7 89 +1 +1 1004.7 987.5 -3.3
03 16.09 З 4 20 км 10/9 600 м
[Cb cap Ci fib]
+4.8 -0.2 70 +1 +1 1006.2 989.1
06 16.09 СЗ 5 20 км 10/9 600 м
[Cb cap Ci fib]
+4.8 +2.1 83 0 0 1007.8 990.7
09 16.09 С 1 20 км {ливн. осадки} 10/10 600 м
[Cb cap]
+5.2 +2.0 80 +4 +4 1010.0 992.8
12 16.09 З 2 20 км в посл. час ливневой дождь 9/9 600 м
[Cb cap]
+2.7 +1.9 94 -1 -1 1012.7 995.4 +7.8 0.7
15 16.09 СЗ 2 20 км 8/8 600 м
[Sc]
+1.9 +0.6 91 -2 -2 1014.0 996.7
18 16.09 З 1 20 км 3/1 600 м
[Sc Ci fib]
0.0 -1.4 90 -2 -2 1015.7 998.2
21 16.09 штиль 0 20 км 1/1 600 м
[Sc]
-4.3 -5.5 91 -5 -5 1017.3 999.5
00 17.09 штиль 0 20 км ясно -2.3 -2.6 98 -4 -2 1018.6 1001.0 -5.3
03 17.09 СЗ 2 20 км 1/1 600 м
[Cu hum]
+4.5 -1.5 65 +2 +6 1018.5 1001.3
06 17.09 З 3 20 км 8/8 600 м
[Cu med, cong]
+7.3 -4.0 44 +5 +6 1018.1 1001.0
09 17.09 З 3 20 км 10/10 600 м
[Cu Sc]
+6.2 -3.7 49 +4 +4 1018.3 1001.2
12 17.09 З 1 20 км 6/6 600 м
[Sc diur, vesp]
+3.5 0.0 78 +2 +2 1019.1 1001.9 +8.0
15 17.09 штиль 0 20 км 6/6 600 м
[Sc]
-1.0 -2.5 90 -2 -2 1019.6 1002.0
18 17.09 штиль 0 20 км 1/1 600 м
[Sc]
-3.4 -4.2 94 -5 -5 1019.7 1001.9
21 17.09 штиль 0 20 км ясно -4.8 -5.1 98 -6 -6 1019.7 1001.8
00 18.09 В 1 20 км в посл. час туман 8/8 600 м
[]
-2.7 -3.1 97 -5 -5 1019.2 1001.4 -5.2
03 18.09 ЮЗ 2 20 км 9/9 600 м
[Cu Sc]
+5.1 +0.7 73 +3 +3 1017.5 1000.3
06 18.09 ЮВ 3 20 км 9/9 600 м
[Cb cap]
+7.5 -1.5 53 +5 +5 1015.3 998.3
09 18.09 ЮЗ 3 20 км 9/6 600 м
[Sc Ac As]
+7.0 -3.3 48 +5 +5 1013.4 996.4
12 18.09 В 1 20 км 10/10 600 м
[Sc]
+4.9 -2.3 60 +4 +4 1011.9 994.7 +8.5
15 18.09 СВ 2 20 км слаб. дождь 10/0 600 м
[As op]
+3.7 -1.6 68 +1 +1 1009.3 992.2
18 18.09 СВ 3 10 км слаб. снег {дождь} 10/0 600 м
[As op]
+0.4 +0.1 98 -4 -4 1007.3 990.0
21 18.09 С 4 20 км слаб. снег 10/0 600 м
[As op]
+0.9 +0.1 94 -5 -5 1007.7 990.4
00 19.09 СЗ 4 20 км {снег} 8/8 600 м
[Sc]
+0.8 -0.9 88 -5 -4 1010.0 992.6 +0.2 11
03 19.09 С 4 20 км 3/0
[Ci fib]
+3.8 -1.4 69 -0 +2 1011.3 994.1
06 19.09 20 км н/о +6.9 -4.6 44 +4 +5 1013.2 996.2
09 19.09 С 1 20 км 1/0
[Ci fib]
+7.2 -7.1 35 +7 +8 1015.3 998.2
12 19.09 штиль 0 20 км ясно +0.1 -3.1 79 -1 -1 1017.8 1000.3 +17.5
15 19.09 штиль 0 20 км ясно -4.0 -4.3 98 -5 -5 1019.9 1002.1
18 19.09 штиль 0 20 км ясно -6.0 -6.0 100 -7 -7 1020.3 1002.3
21 19.09 штиль 0 20 км 1/1 600 м
[Sc]
-7.0 -7.0 100 -8 -8 1020.4 1002.4
00 20.09 Ю 1 20 км 10/8 600 м
[Sc Ci fib]
-2.9 -3.9 93 -5 -5 1019.3 1001.5 -7.6 0
03 20.09 Ю 1 20 км 10/3 600 м
[Sc Ci fib]
+4.0 -2.9 61 +3 +6 1016.9 999.7
06 20.09 Ю 3 20 км 10/3 600 м
[Sc Ci fib]
+8.1 -2.7 46 +6 +8 1013.8 996.9
09 20.09 Ю 2 20 км слаб. дождь 10/10 300 м
[St]
+6.2 -0.6 62 +4 +4 1012.3 995.3
12 20.09 ЮЗ 1 20 км слаб. дождь 10/0 600 м
[As op]
+4.0 +2.8 92 +2 +2 1010.7 993.5 +8.6 0.9
15 20.09 Ю 1 20 км {дождь} 10/10 600 м
[St]
+3.8 +3.6 99 +2 +2 1009.7 992.5
18 20.09 штиль 0 20 км {дождь} 10/10 600 м
[St]
+3.8 +3.6 99 +3 +3 1009.5 992.4
21 20.09 штиль 0 20 км 10/10 600 м
[St]
+4.0 +3.8 99 +3 +3 1010.2 993.0
00 21.09 Ю 2 20 км 10/10 300 м
[St]
+5.0 +5.0 100 +2 +2 1010.0 993.0 +3.6 2
03 21.09 Ю 3 20 км 10/10 300 м
[St]
+7.2 +7.0 99 +4 +4 1007.2 990.4
06 21.09 Ю 6 20 км 10/8 600 м
[Sc Ci fib]
+12.8 +10.7 87 +10 +10 1003.4 987.0
09 21.09 Ю 1 20 км {ливн. осадки} 10/10 600 м
[Cb cap]
+13.6 +12.9 96 +14 +14 1002.5 986.1
12 21.09 Ю 3 20 км {ливн. осадки} 10/10 600 м
[Sc]
+12.8 +11.7 93 +11 +11 1002.8 986.4 +15.2 0.5
15 21.09 З 2 20 км 6/3 600 м
[Sc Ci fib]
+10.2 +7.3 82 +9 +9 1004.7 988.0
18 21.09 штиль 0 20 км 3/1 600 м
[Sc Ci fib]
+4.2 +4.2 100 +3 +3 1005.7 988.6
21 21.09 З 3 20 км 1/1 600 м
[Sc]
+8.3 +1.5 62 +6 +6 1007.5 990.7
00 22.09 ЮЗ 3 20 км 1/1 1000 м
[Sc]
+7.9 +2.1 67 +5 +6 1009.9 993.0 +3.7
03 22.09 З 3 20 км 1/1 600 м
[Cu med, cong]
+10.8 +1.8 54 +9 +12 1010.4 993.6

 

Местоположение метеостанции Крестях (Якутия, Россия): широта 62.27 долгота 116.10 высота над уровнем моря 139 м.

В архиве по умолчанию представлена погода в Крестяхе за последнюю неделю. Архивные данные за месяц целиком и за предыдущие месяцы, начиная с января 2011 года, Вы можете получить, выбрав интересующий диапазон дат из раскрывающегося списка и нажав кнопку "Ввод!".


*Определитесь, кто Вы:
робот инопланетянин человек

Внимание! Время в таблицах - всемирное. Для получения местного времени необходимо прибавить поправку, которая равна 9 ч.

Смотрите также архив погоды в соседних городах и на ближайших метеорологических станциях:

Погода в Сунтаре (Якутия, Россия) (79 км)
Погода в Дорожном (Якутия, Россия) (107 км)
Погода в Мирном (Якутия, Россия) (122 км)
Погода в Нюрбе (Якутия, Россия) (159 км)
Погода в Ленске (Якутия, Россия) (186 км)
Погода в Чернышевском (Якутия, Россия) (207 км)
Погода в Чумпуруке (Якутия, Россия) (222 км)
Погода в Килиере (Якутия, Россия) (224 км)
Погода в Верхневилюйске (Якутия, Россия) (246 км)
Погода в Туой-Хае (Якутия, Россия) (254 км)

Пояснения к столбцам:

Ветер - указаны скорость ветра в м/с - средняя за 10 мин, порывы в срок и между сроками (в фигурных скобках) и направление, откуда дует ветер: С - северный, СВ - северо-восточный, В - восточный, ЮВ - юго-восточный, Ю - южный, ЮЗ - юго-западный, З - западный, СЗ - северо-западный.
Видимость - горизонтальная дальность видимости в метрах или километрах. При видимости от 1 до 10 км при отсутствии осадков обычно наблюдается дымка, при ухудшении видимости до 1 км и менее - туман. В сухую погоду видимость может ухудшаться дымом, пылью или мглою.
Явления - указаны атмосферные явления, наблюдавшиеся в срок или в последний час перед сроком; фигурными скобками обозначены явления, наблюдавшиеся между сроками (за 1-3 часа до срока); квадратными скобками обозначены град или гололедные отложения с указанием их диаметра в мм.
Облачность - указаны через наклонную черту общая и нижняя облачность в баллах и высота нижней границы облаков в метрах; квадратными скобками обозначены формы облаков: Ci - перистые, Cs - перисто-слоистые, Cc - перисто-кучевые, Ac - высококучевые, As - высокослоистые, Sc - слоисто-кучевые, Ns - слоисто-дождевые, Cu - кучевые, Cb - кучево-дождевые. Подробнее классификацию облаков см. в Атласе облаков (PDF).
T - Температура воздуха - температура, измеренная на высоте 2 м над землей.
Td - Температура точки росы - температура, при понижении до которой содержащийся в воздухе водяной пар достигнет насыщения.
f - Относительная влажность воздуха - влажноcть воздуха, измеренная на высоте 2 м над землей.
Te - Эффективная температура - температура, которую ощущает одетый по сезону человек в тени. Характеристика душности погоды. При расчете учитывается влияние влажности воздуха и скорости ветра на теплоощущения человека.
Tes - Эффективная температура на солнце - температура, которую ощущает человек, с поправкой на солнечный нагрев. Характеристика знойности погоды. Зависит от высоты солнца над горизонтом, облачности и скорости ветра. Ночью, в пасмурную погоду, а также при ветре 12 м/с и более поправка равна нулю.
P - Атмосферное давление - приведенное к уровню моря атмосферное давление.
Po - Атмосферное давление - измеренное на уровне метеостанции атмосферное давление.
Tmin - Минимальная температура - минимум температуры воздуха на высоте 2 м над землей.
Tmax - Максимальная температура - максимум температуры воздуха на высоте 2 м над землей.
R - Количество осадков - Количество выпавших осадков за период времени, мм. При наведении курсора мыши на число - период времени, за который выпало указанное количество осадков.
R24 - Количество осадков - Количество выпавших осадков за 24 часа, мм.
S - Снежный покров - Высота снежного покрова, см. При наведении курсора мыши на число - состояние снежного покрова и степень покрытия местности в баллах.